Torna al catalogo

SL-16 DEB

AttivoPO
NORAD 25865·DEBRIS·🇷🇺 Russia

Lanciato Jul 17, 1999 da Baikonur Cosmodrome

Loading…

Prossimi Passaggi (prossime 24 ore)

TLE

AggiornatoSource: Space-Track

Epoca: Sep 14, 2026, 12:50 UTC

1 25865U 99039F   26257.53508425  .00000306  00000-0  98035-4 0  9998
2 25865  97.8258 159.7899 0177280 173.3478 312.5682 14.37071777418771

Traccia SL-16 DEB in tempo reale con AllMySat

Download on the App Store